Location: Cassano d�Adda
(45.5333°N, 9.5167°E)
Time: 07:34:53
(UTC+00:00)

Cosmos 2278 Rocket - Pass Details

Date: 08 December 2019
Orbit: 843 x 844 km, 71.0° (Epoch: 24 January)

Event Time Altitude Azimuth Distance (km) Brightness Sun altitude
Rises 17:34:42 0° 329° (NNW) 3,410 5.6 -19.6°
Reaches altitude 10° 17:37:14 10° 324° (NW) 2,471 4.9 -20.0°
Maximum altitude 17:42:37 47° 252° (WSW) 1,104 3.2 -20.9°
Drops below altitude 10° 17:48:00 10° 180° (S) 2,454 4.7 -21.8°
Sets 17:50:30 0° 174° (S) 3,384 5.4 -22.3°
